Weather History for Marathon, FL

Change the Weather History Date:

Sunday, November 27, 2011

  Actual Average Record
Temperature  
Mean Temperature 79 °F 74 °F  
Max Temperature 83 °F 79 °F 85 °F (2007)
Min Temperature 75 °F 70 °F 60 °F (2014)
Degree Days  
Heating Degree Days 0 0  
Month to date heating degree days 0 0  
Since 1 July heating degree days 0 0  
Cooling Degree Days 14 10  
Month to date cooling degree days 338 298  
Year to date cooling degree days 5117 4737  
Growing Degree Days 28 (Base 50)    
Moisture  
Dew Point 64 °F    
Average Humidity 60    
Maximum Humidity 64    
Minimum Humidity 55    
Precipitation  
Precipitation T in 0.08 in 2.14 in (2013)
Month to date precipitation 0.30 2.59  
Year to date precipitation 35.81 43.92  
Snow  
Snow 0.00 in - - ()
Month to date snowfall 0.0  
Since 1 July snowfall 0.0  
Since 1 September snowfall 0.0  
Snow Depth 0.00 in    
Sea Level Pressure  
Sea Level Pressure 30.01 in    
Wind  
Wind Speed 10 mph (East)    
Max Wind Speed 15 mph    
Max Gust Speed 23 mph    
Visibility 10 miles    
Events      
T = Trace of Precipitation, MM = Missing Value Source: NWS Daily Summary

Daily Weather History Graph

Daily Weather History Graph

Search for Another Location

Airport:

Trip Planner

Search our weather history database for the weather conditions in past years. The results will help you decide how hot, cold, wet, or windy it might be!

Date:

Astronomy

Nov. 27, 2011 Rise Set
Actual Time 6:48 AM EST 5:34 PM EST
Civil Twilight 6:24 AM EST 5:59 PM EST
Nautical Twilight 5:56 AM EST 6:27 PM EST
Astronomical Twilight 5:28 AM EST 6:54 PM EST
Moon 9:09 AM EST (11/27) 8:12 PM EST (11/27)
Length of Visible Light 11h 35m
Length of Day
10h 46m
Waxing Crescent, 8% of the Moon is Illuminated
Nov 27
Waxing Crescent
Dec 2
First Quarter
Dec 10
Full
Dec 17
Last Quarter
Dec 24
New

Hourly Weather History & Observations

Time (EST) Temp. Heat Index Dew Point Humidity Pressure Visibility Wind Dir Wind Speed Gust Speed Precip Events Conditions
12:53 AM 75.9 °F - 61.0 °F 60% 30.06 in 10.0 mi East 11.5 mph 19.6 mph N/A   Scattered Clouds
1:53 AM 75.9 °F - 61.0 °F 60% 30.04 in 10.0 mi East 12.7 mph 20.7 mph 0.00 in   Mostly Cloudy
2:53 AM 75.9 °F - 61.0 °F 60% 30.03 in 10.0 mi East 9.2 mph 18.4 mph N/A   Mostly Cloudy
3:53 AM 75.9 °F - 62.1 °F 62% 30.01 in 10.0 mi East 13.8 mph - N/A   Partly Cloudy
4:53 AM 75.9 °F - 62.1 °F 62% 30.01 in 10.0 mi East 12.7 mph 18.4 mph N/A   Scattered Clouds
5:53 AM 75.0 °F - 62.1 °F 64% 30.01 in 10.0 mi East 10.4 mph 16.1 mph N/A   Partly Cloudy
6:53 AM 75.0 °F - 62.1 °F 64% 30.02 in 10.0 mi East 11.5 mph 19.6 mph N/A   Clear
8:53 AM 77.0 °F - 63.0 °F 62% 30.05 in 10.0 mi East 12.7 mph 19.6 mph N/A   Clear
9:53 AM 80.1 °F 81.7 °F 64.0 °F 58% 30.06 in 10.0 mi East 10.4 mph 18.4 mph N/A   Scattered Clouds
10:53 AM 82.0 °F 83.8 °F 64.9 °F 56% 30.06 in 10.0 mi ESE 11.5 mph 19.6 mph N/A   Scattered Clouds
11:53 AM 79.0 °F - 64.9 °F 62% 30.04 in 10.0 mi East 10.4 mph 19.6 mph N/A   Scattered Clouds
12:53 PM 80.1 °F 81.9 °F 64.9 °F 60% 30.01 in 10.0 mi East 9.2 mph 20.7 mph N/A   Partly Cloudy
1:53 PM 82.0 °F 84.1 °F 66.0 °F 58% 29.99 in 10.0 mi ESE 9.2 mph 20.7 mph N/A   Clear
2:53 PM 81.0 °F 82.7 °F 64.9 °F 58% 29.98 in 10.0 mi East 8.1 mph 17.3 mph N/A   Clear
3:53 PM 79.0 °F - 64.9 °F 62% 29.97 in 10.0 mi East 9.2 mph - N/A   Clear
4:53 PM 78.1 °F - 64.9 °F 64% 29.97 in 10.0 mi East 9.2 mph - N/A   Clear
5:53 PM 77.0 °F - 64.0 °F 64% 29.96 in 10.0 mi East 9.2 mph - N/A   Partly Cloudy
6:53 PM 77.0 °F - 64.0 °F 64% 29.97 in 10.0 mi East 9.2 mph - N/A   Partly Cloudy
7:53 PM 77.0 °F - 64.9 °F 66% 29.98 in 10.0 mi East 9.2 mph - N/A   Partly Cloudy
8:53 PM 77.0 °F - 64.9 °F 66% 29.99 in 10.0 mi ESE 6.9 mph - N/A   Clear
9:53 PM 77.0 °F - 64.0 °F 64% 29.98 in 10.0 mi ESE 10.4 mph 16.1 mph N/A   Clear
10:53 PM 77.0 °F - 64.9 °F 66% 29.98 in 10.0 mi SE 9.2 mph - N/A   Clear
11:53 PM 77.0 °F - 64.0 °F 64% 29.97 in 10.0 mi ESE 8.1 mph - N/A   Clear